sat.trackr.live / text

‹ back to catalog

STARLINK-3916

NORAD 52492 · 2022-049AT

PAYLOAD ACTIVE UNKNOWN

§ Identity

Operator
Country
US
Launch date
2022-05-06
Launch site
AFETR
Launch vehicle
Mass (kg)
RCS (m²)

Purposes: comms

External: N2YO · Heavens-Above · Gunter

§ Orbital elements

Epoch: 2026-05-25T04:41:12.418368Z

Period
95.44 min
Inclination
53.2143°
Eccentricity
0.0001891
Mean motion
15.08851919 rev/d
Perigee alt
538.4 km
Apogee alt
541.0 km
Semi-major
6,917.8 km
B*
-7.9115e-5
RAAN
65.6702°
Arg perigee
81.3152°
Mean anomaly
278.8054°
Rev number
22,394

§ Raw data

STARLINK-39161 52492U 22049AT  26145.19528262 -.00001548  00000+0 -79115-4 0  99982 52492  53.2143  65.6702 0001891  81.3152 278.8054 15.08851919223948

JSON: /api/v1/satellites/52492 · /tle

For live sub-satellite position, see the globe view (requires WebGL).

§ Visibility from observer

Set your observer location to see the next 7 days of passes ≥ 10°. The values pass through the URL so the page stays shareable.

No JS? Fill the form by hand. The geolocation button needs JavaScript.